weather.gov     
National Weather Service

Terminal Aerodrome Forecast
NWS Homepage
This page is being discontinued on March 12, 2014.
The same data is available at this site. Please update your bookmarks.
Thank you, and we apologize for the inconvenience.
Please send an email to SR-SRH.Webmaster@noaa.gov with any concerns.


Current Version
Previous Version:    01  02  03  04  05  06  07  08  09  10  11  12  13  14  15  16  17  18  19  20  21  22  23  24  25  26  27  
[Printable]
286
FTUS44 KBRO 251700
TAFMFE
TAF
KMFE 251728Z 2518/2618 16015G20KT P6SM BKN250
     FM252000 15020G27KT P6SM BKN200
     FM260300 15013KT P6SM BKN200
     FM261100 15008KT P6SM BKN035
     FM261600 16015G20KT P6SM SCT035 SCT050 BKN200=


U.S. Dept. of Commerce
NOAA National Weather Service
1325 East West Highway
Silver Spring, MD 20910
E-mail: w-nws.webmaster@noaa.gov
Page last modified: May 16, 2007
NATIONAL WEATHER SERVICE: for Safety, for Work, for Fun - FOR LIFE